Year,Month,Day,Hour,Minute,Value (Times are PST for temperature in C)
2020,04,23,14,26,11.70
2020,04,23,14,27,11.80
2020,04,23,14,28,11.80
2020,04,23,14,29,11.80
2020,04,23,14,30,11.80
2020,04,23,14,31,11.80
2020,04,23,14,32,11.80
2020,04,23,14,33,11.80
2020,04,23,14,34,11.70
2020,04,23,14,35,11.70
2020,04,23,14,36,11.70
2020,04,23,14,37,11.80
2020,04,23,14,38,11.70
2020,04,23,14,39,11.80
2020,04,23,14,40,11.80
2020,04,23,14,41,11.80
2020,04,23,14,42,11.80
2020,04,23,14,43,11.80
2020,04,23,14,44,11.70
2020,04,23,14,45,11.70
2020,04,23,14,46,11.70
2020,04,23,14,47,11.70
2020,04,23,14,48,11.70
2020,04,23,14,49,11.70
2020,04,23,14,50,11.70
2020,04,23,14,51,11.70
2020,04,23,14,52,11.70
2020,04,23,14,53,11.70
2020,04,23,14,54,11.70
2020,04,23,14,55,11.70
2020,04,23,14,56,11.80
2020,04,23,14,57,11.80
2020,04,23,14,58,11.80
2020,04,23,14,59,11.90
2020,04,23,15,00,11.90
2020,04,23,15,01,11.90
2020,04,23,15,02,11.90
2020,04,23,15,03,11.90
2020,04,23,15,04,11.90
2020,04,23,15,05,11.80
2020,04,23,15,06,11.80
2020,04,23,15,07,11.90
2020,04,23,15,08,11.90
2020,04,23,15,09,11.90
2020,04,23,15,10,11.90
2020,04,23,15,11,12.00
2020,04,23,15,12,12.00
2020,04,23,15,13,12.00
2020,04,23,15,14,12.00
2020,04,23,15,15,12.00
2020,04,23,15,16,12.10
2020,04,23,15,17,12.10
2020,04,23,15,18,12.20
2020,04,23,15,19,12.20
2020,04,23,15,20,12.20
2020,04,23,15,21,12.20
2020,04,23,15,22,12.20
2020,04,23,15,23,12.20
2020,04,23,15,24,12.10
2020,04,23,15,25,12.10
2020,04,23,15,26,12.10
2020,04,23,15,27,12.10
2020,04,23,15,28,12.10
2020,04,23,15,29,12.10
2020,04,23,15,30,12.10
2020,04,23,15,31,12.10
2020,04,23,15,32,12.10
2020,04,23,15,33,12.10
2020,04,23,15,34,12.10
2020,04,23,15,35,12.10
2020,04,23,15,36,12.10
2020,04,23,15,37,12.10
2020,04,23,15,38,12.10
2020,04,23,15,39,12.10
2020,04,23,15,40,12.00
2020,04,23,15,41,12.00
2020,04,23,15,42,12.00
2020,04,23,15,43,12.00
2020,04,23,15,44,12.00
2020,04,23,15,45,12.00
2020,04,23,15,46,12.00
2020,04,23,15,47,12.00
2020,04,23,15,48,12.00
2020,04,23,15,49,12.00
2020,04,23,15,50,12.00
2020,04,23,15,51,12.00
2020,04,23,15,52,12.00
2020,04,23,15,53,12.00
2020,04,23,15,54,12.10
2020,04,23,15,55,12.10
2020,04,23,15,56,12.10
2020,04,23,15,57,12.10
2020,04,23,15,58,12.10
2020,04,23,15,59,12.10
2020,04,23,16,00,12.10
2020,04,23,16,01,12.10
2020,04,23,16,02,12.10
2020,04,23,16,03,12.10
2020,04,23,16,04,12.10
2020,04,23,16,05,12.10
2020,04,23,16,06,12.10
2020,04,23,16,07,12.10
2020,04,23,16,08,12.10
2020,04,23,16,09,12.10
2020,04,23,16,10,12.20
2020,04,23,16,11,12.20
2020,04,23,16,12,12.20
2020,04,23,16,13,12.20
2020,04,23,16,14,12.20
2020,04,23,16,15,12.20
2020,04,23,16,16,12.20
2020,04,23,16,17,12.20
2020,04,23,16,18,12.30
2020,04,23,16,19,12.30
2020,04,23,16,20,12.30
2020,04,23,16,21,12.30
2020,04,23,16,22,12.40
2020,04,23,16,23,12.40
2020,04,23,16,24,12.50
2020,04,23,16,25,12.50
2020,04,23,16,26,12.50
2020,04,23,16,27,12.50
2020,04,23,16,28,12.50
2020,04,23,16,29,12.50
2020,04,23,16,30,12.50
2020,04,23,16,31,12.50
2020,04,23,16,32,12.60
2020,04,23,16,33,12.50
2020,04,23,16,34,12.50
2020,04,23,16,35,12.60
2020,04,23,16,36,12.60
2020,04,23,16,37,12.70
2020,04,23,16,38,12.70
2020,04,23,16,39,12.70
2020,04,23,16,40,12.70
2020,04,23,16,41,12.70
2020,04,23,16,42,12.80
2020,04,23,16,43,12.80
2020,04,23,16,44,12.90
2020,04,23,16,45,12.90
2020,04,23,16,46,12.80
2020,04,23,16,47,12.70
2020,04,23,16,48,12.70
2020,04,23,16,49,12.60
2020,04,23,16,50,12.60
2020,04,23,16,51,12.50
2020,04,23,16,52,12.50
2020,04,23,16,53,12.40
2020,04,23,16,54,12.40
2020,04,23,16,55,12.40
2020,04,23,16,56,12.30
2020,04,23,16,57,12.20
2020,04,23,16,58,12.10
2020,04,23,16,59,12.10
2020,04,23,17,00,12.10
2020,04,23,17,01,12.10
2020,04,23,17,02,12.10
2020,04,23,17,03,12.20
2020,04,23,17,04,12.30
2020,04,23,17,05,12.30
2020,04,23,17,06,12.40
2020,04,23,17,07,12.30
2020,04,23,17,08,12.30
2020,04,23,17,09,12.30
2020,04,23,17,10,12.20
2020,04,23,17,11,12.30
2020,04,23,17,12,12.30
2020,04,23,17,13,12.30
2020,04,23,17,14,12.30
2020,04,23,17,15,12.30
2020,04,23,17,16,12.30
2020,04,23,17,17,12.40
2020,04,23,17,18,12.50
2020,04,23,17,19,12.50
2020,04,23,17,20,12.60
2020,04,23,17,21,12.60
2020,04,23,17,22,12.60
2020,04,23,17,23,12.60
2020,04,23,17,24,12.60
2020,04,23,17,25,12.60
2020,04,23,17,26,12.60
2020,04,23,17,27,12.60
2020,04,23,17,28,12.60
2020,04,23,17,29,12.60
2020,04,23,17,30,12.70
2020,04,23,17,31,12.70
2020,04,23,17,32,12.70
2020,04,23,17,33,12.70
2020,04,23,17,34,12.70
2020,04,23,17,35,12.60
2020,04,23,17,36,12.60
2020,04,23,17,37,12.60
2020,04,23,17,38,12.50
2020,04,23,17,39,12.50
2020,04,23,17,40,12.60
2020,04,23,17,41,12.50
2020,04,23,17,42,12.50
2020,04,23,17,43,12.50
2020,04,23,17,44,12.40
2020,04,23,17,45,12.40
2020,04,23,17,46,12.30
2020,04,23,17,47,12.30
2020,04,23,17,48,12.20
2020,04,23,17,49,12.10
2020,04,23,17,50,12.10
2020,04,23,17,51,12.10
2020,04,23,17,52,12.10
2020,04,23,17,53,12.10
2020,04,23,17,54,12.10
2020,04,23,17,55,12.10
2020,04,23,17,56,12.10
2020,04,23,17,57,12.10
2020,04,23,17,58,12.10
2020,04,23,17,59,12.10
2020,04,23,18,00,12.10
2020,04,23,18,01,12.10
2020,04,23,18,02,12.10
2020,04,23,18,03,12.10
2020,04,23,18,04,12.10
2020,04,23,18,05,12.00
2020,04,23,18,06,12.00
2020,04,23,18,07,12.00
2020,04,23,18,08,12.00
2020,04,23,18,09,12.00
2020,04,23,18,10,12.10
2020,04,23,18,11,12.10
2020,04,23,18,12,12.10
2020,04,23,18,13,12.10
2020,04,23,18,14,12.20
2020,04,23,18,15,12.20
2020,04,23,18,16,12.20
2020,04,23,18,17,12.20
2020,04,23,18,18,12.20
2020,04,23,18,19,12.20
2020,04,23,18,20,12.10
2020,04,23,18,21,12.10
2020,04,23,18,22,12.10
2020,04,23,18,23,12.10
2020,04,23,18,24,12.10
2020,04,23,18,25,12.00
2020,04,23,18,26,12.10
2020,04,23,18,27,12.10
2020,04,23,18,28,12.20
2020,04,23,18,29,12.20
2020,04,23,18,30,12.20
2020,04,23,18,31,12.10
2020,04,23,18,32,12.10
2020,04,23,18,33,12.10
2020,04,23,18,34,12.10
2020,04,23,18,35,12.10
2020,04,23,18,36,12.10
2020,04,23,18,37,12.10
2020,04,23,18,38,12.20
2020,04,23,18,39,12.20
2020,04,23,18,40,12.20
2020,04,23,18,41,12.30
2020,04,23,18,42,12.30
2020,04,23,18,43,12.20
2020,04,23,18,44,12.10
2020,04,23,18,45,12.10
2020,04,23,18,46,12.00
2020,04,23,18,47,12.00
2020,04,23,18,48,12.00
2020,04,23,18,49,12.00
2020,04,23,18,50,12.10
2020,04,23,18,51,12.10
2020,04,23,18,52,12.20
2020,04,23,18,53,12.20
2020,04,23,18,54,12.20
2020,04,23,18,55,12.20
2020,04,23,18,56,12.20
2020,04,23,18,57,12.20
2020,04,23,18,58,12.10
2020,04,23,18,59,12.10
2020,04,23,19,00,12.10
2020,04,23,19,01,12.10
2020,04,23,19,02,12.10
2020,04,23,19,03,12.20
2020,04,23,19,04,12.20
2020,04,23,19,05,12.10
2020,04,23,19,06,12.00
2020,04,23,19,07,11.90
2020,04,23,19,08,11.90
2020,04,23,19,09,11.90
2020,04,23,19,10,11.90
2020,04,23,19,11,11.90
2020,04,23,19,12,11.90
2020,04,23,19,13,11.80
2020,04,23,19,14,11.80
2020,04,23,19,15,11.80
2020,04,23,19,16,11.80
2020,04,23,19,17,11.90
2020,04,23,19,18,11.90
2020,04,23,19,19,12.00
2020,04,23,19,20,12.00
2020,04,23,19,21,12.00
2020,04,23,19,22,12.10
2020,04,23,19,23,12.10
2020,04,23,19,24,12.10
2020,04,23,19,25,12.00
2020,04,23,19,26,12.10
2020,04,23,19,27,12.10
2020,04,23,19,28,12.10
2020,04,23,19,29,12.00
2020,04,23,19,30,12.00
2020,04,23,19,31,12.00
2020,04,23,19,32,12.00
2020,04,23,19,33,11.90
2020,04,23,19,34,11.90
2020,04,23,19,35,11.90
2020,04,23,19,36,11.90
2020,04,23,19,37,11.90
2020,04,23,19,38,11.90
2020,04,23,19,39,11.90
2020,04,23,19,40,12.00
2020,04,23,19,41,11.90
2020,04,23,19,42,11.90
2020,04,23,19,43,11.90
2020,04,23,19,44,11.90
2020,04,23,19,45,11.90
2020,04,23,19,46,11.90
2020,04,23,19,47,11.90
2020,04,23,19,48,11.80
2020,04,23,19,49,11.80
2020,04,23,19,50,11.80
2020,04,23,19,51,11.80
2020,04,23,19,52,11.80
2020,04,23,19,53,11.70
2020,04,23,19,54,11.70
2020,04,23,19,55,11.70
2020,04,23,19,56,11.70
2020,04,23,19,57,11.70
2020,04,23,19,58,11.70
2020,04,23,19,59,11.70
2020,04,23,20,00,11.70
2020,04,23,20,01,11.70
2020,04,23,20,02,11.70
2020,04,23,20,03,11.70
2020,04,23,20,04,11.60
2020,04,23,20,05,11.60
2020,04,23,20,06,11.60
2020,04,23,20,07,11.60
2020,04,23,20,08,11.50
2020,04,23,20,09,11.50
2020,04,23,20,10,11.50
2020,04,23,20,11,11.50
2020,04,23,20,12,11.50
2020,04,23,20,13,11.40
2020,04,23,20,14,11.40
2020,04,23,20,15,11.40
2020,04,23,20,16,11.40
2020,04,23,20,17,11.40
2020,04,23,20,18,11.40
2020,04,23,20,19,11.40
2020,04,23,20,20,11.40
2020,04,23,20,21,11.40
2020,04,23,20,22,11.30
2020,04,23,20,23,11.30
2020,04,23,20,24,11.30
2020,04,23,20,25,11.30
2020,04,23,20,26,11.30
2020,04,23,20,27,11.30
2020,04,23,20,28,11.30
2020,04,23,20,29,11.30
2020,04,23,20,30,11.30
2020,04,23,20,31,11.30
2020,04,23,20,32,11.20
2020,04,23,20,33,11.20
2020,04,23,20,34,11.20
2020,04,23,20,35,11.10
2020,04,23,20,36,11.10
2020,04,23,20,37,11.10
2020,04,23,20,38,11.10
2020,04,23,20,39,11.10
2020,04,23,20,40,11.10
2020,04,23,20,41,11.10
2020,04,23,20,42,11.10
2020,04,23,20,43,11.10
2020,04,23,20,44,11.10
2020,04,23,20,45,11.10
2020,04,23,20,46,11.10
2020,04,23,20,47,11.10
2020,04,23,20,48,11.10
2020,04,23,20,49,11.10
2020,04,23,20,50,11.10
2020,04,23,20,51,11.00
2020,04,23,20,52,11.00
2020,04,23,20,53,11.00
2020,04,23,20,54,11.00
2020,04,23,20,55,11.00
2020,04,23,20,56,11.00
2020,04,23,20,57,10.90
2020,04,23,20,58,10.90
2020,04,23,20,59,10.90
2020,04,23,21,00,10.80
2020,04,23,21,01,10.80
2020,04,23,21,02,10.80
2020,04,23,21,03,10.80
2020,04,23,21,04,10.80
2020,04,23,21,05,10.80
2020,04,23,21,06,10.70
2020,04,23,21,07,10.70
2020,04,23,21,08,10.70
2020,04,23,21,09,10.70
2020,04,23,21,10,10.80
2020,04,23,21,11,10.80
2020,04,23,21,12,10.80
2020,04,23,21,13,10.80
2020,04,23,21,14,10.80
2020,04,23,21,15,10.80
2020,04,23,21,16,10.80
2020,04,23,21,17,10.80
2020,04,23,21,18,10.80
2020,04,23,21,19,10.70
2020,04,23,21,20,10.70
2020,04,23,21,21,10.70
2020,04,23,21,22,10.70
2020,04,23,21,23,10.70
2020,04,23,21,24,10.70
2020,04,23,21,25,10.70
2020,04,23,21,26,10.70
2020,04,23,21,27,10.60
2020,04,23,21,28,10.60
2020,04,23,21,29,10.60
2020,04,23,21,30,10.70
2020,04,23,21,31,10.60
2020,04,23,21,32,10.70
2020,04,23,21,33,10.70
2020,04,23,21,34,10.70
2020,04,23,21,35,10.70
2020,04,23,21,36,10.70
2020,04,23,21,37,10.70
2020,04,23,21,38,10.70
2020,04,23,21,39,10.70
2020,04,23,21,40,10.70
2020,04,23,21,41,10.70
2020,04,23,21,42,10.70
2020,04,23,21,43,10.70
2020,04,23,21,44,10.80
2020,04,23,21,45,10.80
2020,04,23,21,46,10.80
2020,04,23,21,47,10.80
2020,04,23,21,48,10.80
2020,04,23,21,49,10.70
2020,04,23,21,50,10.70
2020,04,23,21,51,10.70
2020,04,23,21,52,10.70
2020,04,23,21,53,10.70
2020,04,23,21,54,10.70
2020,04,23,21,55,10.70
2020,04,23,21,56,10.70
2020,04,23,21,57,10.80
2020,04,23,21,58,10.70
2020,04,23,21,59,10.70
2020,04,23,22,00,10.70
2020,04,23,22,01,10.70
2020,04,23,22,02,10.70
2020,04,23,22,03,10.70
2020,04,23,22,04,10.70
2020,04,23,22,05,10.60
2020,04,23,22,06,10.60
2020,04,23,22,07,10.60
2020,04,23,22,08,10.60
2020,04,23,22,09,10.60
2020,04,23,22,10,10.60
2020,04,23,22,11,10.60
2020,04,23,22,12,10.60
2020,04,23,22,13,10.60
2020,04,23,22,14,10.60
2020,04,23,22,15,10.60
2020,04,23,22,16,10.50
2020,04,23,22,17,10.50
2020,04,23,22,18,10.40
2020,04,23,22,19,10.40
2020,04,23,22,20,10.30
2020,04,23,22,21,10.30
2020,04,23,22,22,10.30
2020,04,23,22,23,10.20
2020,04,23,22,24,10.20
2020,04,23,22,25,10.20
2020,04,23,22,26,10.10
2020,04,23,22,27,10.10
2020,04,23,22,28,10.10
2020,04,23,22,29,10.10
2020,04,23,22,30,10.10
2020,04,23,22,31,10.10
2020,04,23,22,32,10.00
2020,04,23,22,33,10.00
2020,04,23,22,34,10.00
2020,04,23,22,35,10.00
2020,04,23,22,36,10.00
2020,04,23,22,37,10.00
2020,04,23,22,38,10.00
2020,04,23,22,39,10.00
2020,04,23,22,40,10.10
2020,04,23,22,41,10.00
2020,04,23,22,42,10.10
2020,04,23,22,43,10.10
2020,04,23,22,44,10.00
2020,04,23,22,45,10.10
2020,04,23,22,46,10.10
2020,04,23,22,47,10.00
2020,04,23,22,48,10.00
2020,04,23,22,49,10.00
2020,04,23,22,50,10.00
2020,04,23,22,51,10.00
2020,04,23,22,52,10.00
2020,04,23,22,53,10.00
2020,04,23,22,54,10.00
2020,04,23,22,55,10.00
2020,04,23,22,56,10.00
2020,04,23,22,57,10.00
2020,04,23,22,58,9.90
2020,04,23,22,59,9.90
2020,04,23,23,00,9.90
2020,04,23,23,01,9.90
2020,04,23,23,02,9.90
2020,04,23,23,03,9.90
2020,04,23,23,04,9.90
2020,04,23,23,05,9.90
2020,04,23,23,06,9.90
2020,04,23,23,07,9.90
2020,04,23,23,08,9.90
2020,04,23,23,09,9.90
2020,04,23,23,10,9.90
2020,04,23,23,11,9.90
2020,04,23,23,12,9.90
2020,04,23,23,13,9.90
2020,04,23,23,14,9.90
2020,04,23,23,15,9.90
2020,04,23,23,16,9.90
2020,04,23,23,17,9.90
2020,04,23,23,18,9.90
2020,04,23,23,19,9.90
2020,04,23,23,20,9.90
2020,04,23,23,21,9.90
2020,04,23,23,22,9.90
2020,04,23,23,23,9.90
2020,04,23,23,24,9.80
2020,04,23,23,25,9.80
2020,04,23,23,26,9.80
2020,04,23,23,27,9.80
2020,04,23,23,28,9.80
2020,04,23,23,29,9.70
2020,04,23,23,30,9.70
2020,04,23,23,31,9.70
2020,04,23,23,32,9.60
2020,04,23,23,33,9.60
2020,04,23,23,34,9.60
2020,04,23,23,35,9.60
2020,04,23,23,36,9.60
2020,04,23,23,37,9.60
2020,04,23,23,38,9.50
2020,04,23,23,39,9.50
2020,04,23,23,40,9.50
2020,04,23,23,41,9.50
2020,04,23,23,42,9.50
2020,04,23,23,43,9.50
2020,04,23,23,44,9.50
2020,04,23,23,45,9.50
2020,04,23,23,46,9.50
2020,04,23,23,47,9.50
2020,04,23,23,48,9.50
2020,04,23,23,49,9.50
2020,04,23,23,50,9.50
2020,04,23,23,51,9.50
2020,04,23,23,52,9.50
2020,04,23,23,53,9.50
2020,04,23,23,54,9.40
2020,04,23,23,55,9.40
2020,04,23,23,56,9.40
2020,04,23,23,57,9.40
2020,04,23,23,58,9.40
2020,04,23,23,59,9.40
